Date String (YYYY-MM-DD hh:mm:ss) UTC,Instrument flags,Ambient pressure (hPa),Sample flow (lpm),Bypass flow (lpm),Sample temperature (°C),Ambient temperature (°C),ASC tube jacket temperature (°C),LED temperature (°C),Box temperature (°C),Sample RH (%),Span deviation,Mass concentration (μg/m³),Mass concentration (μg/m³),Mass concentration (μg/m³)
DateTimeUTC,F1_M11,P_M11,Q1_M11,Q2_M11,T1_M11,T2_M11,T3_M11,T4_M11,T5_M11,U1_M11,ZSPAN_M11,X0_M11,X2_M11,X1_M11
2021-12-16 19:00:00,,0820.0,5.01,0.00,25.3,24.6,00.0,34.2,27.2,07.3,0000.0,0017.43,0004.09,0002.35
2021-12-16 19:01:00,,0820.0,5.00,0.00,25.3,24.6,00.0,34.2,27.2,07.3,0000.0,0017.36,0004.08,0002.36
2021-12-16 19:02:00,,0819.9,5.00,0.00,25.3,24.6,00.0,34.2,27.2,07.3,0000.0,0017.67,0004.08,0002.38
2021-12-16 19:03:00,,0820.0,5.00,0.00,25.3,24.6,00.0,34.3,27.2,07.3,0000.0,0016.77,0004.08,0002.39
2021-12-16 19:04:00,,0820.0,4.99,0.00,25.3,24.6,00.0,34.3,27.2,07.3,0000.0,0016.34,0004.11,0002.41
2021-12-16 19:05:00,,0819.9,5.01,0.00,25.3,24.6,00.0,34.3,27.2,07.3,0000.0,0016.64,0004.14,0002.40
2021-12-16 19:06:00,,0819.8,4.99,0.00,25.4,24.6,00.0,34.3,27.2,07.2,0000.0,0016.74,0004.19,0002.38
2021-12-16 19:07:00,,0819.7,5.00,0.00,25.4,24.6,00.0,34.3,27.2,07.3,0000.0,0017.27,0004.19,0002.37
2021-12-16 19:08:00,,0819.6,5.01,0.00,25.4,24.6,00.0,34.3,27.3,07.2,0000.0,0017.41,0004.15,0002.36
2021-12-16 19:09:00,,0819.7,5.00,0.00,25.4,24.6,00.0,34.3,27.3,07.2,0000.0,0016.91,0004.16,0002.35
2021-12-16 19:10:00,,0819.7,4.99,0.00,25.4,24.7,00.0,34.3,27.3,07.2,0000.0,0016.50,0004.15,0002.35
2021-12-16 19:11:00,,0819.6,5.01,0.00,25.4,24.7,00.0,34.4,27.3,07.2,0000.0,0015.56,0004.17,0002.34
2021-12-16 19:12:00,,0819.7,4.99,0.00,25.4,24.7,00.0,34.4,27.3,07.2,0000.0,0015.21,0004.16,0002.32
2021-12-16 19:13:00,,0819.7,5.00,0.00,25.5,24.7,00.0,34.4,27.3,07.2,0000.0,0015.89,0004.19,0002.30
2021-12-16 19:14:00,,0819.7,5.01,0.00,25.5,24.7,00.0,34.4,27.3,07.2,0000.0,0016.72,0004.15,0002.27
2021-12-16 19:15:00,,0819.7,5.00,0.00,25.5,24.7,00.0,34.4,27.3,07.2,0000.0,0018.27,0004.12,0002.24
2021-12-16 19:16:00,,0819.7,5.01,0.00,25.5,24.7,00.0,34.4,27.3,07.2,0000.0,0018.35,0004.09,0002.21
2021-12-16 19:17:00,,0819.7,4.99,0.00,25.5,24.8,00.0,34.4,27.3,07.2,0000.0,0017.73,0004.05,0002.20
2021-12-16 19:18:00,,0819.6,5.00,0.00,25.5,24.8,00.0,34.4,27.4,07.2,0000.0,0017.08,0004.02,0002.19
2021-12-16 19:19:00,,0819.5,5.00,0.00,25.5,24.8,00.0,34.4,27.4,07.2,0000.0,0017.01,0004.02,0002.19
2021-12-16 19:20:00,,0819.5,5.00,0.00,25.5,24.8,00.0,34.5,27.4,07.2,0000.0,0017.46,0004.01,0002.19
2021-12-16 19:21:00,,0819.5,4.99,0.00,25.5,24.8,00.0,34.5,27.4,07.2,0000.0,0017.81,0004.04,0002.18
2021-12-16 19:22:00,,0819.5,5.01,0.00,25.6,24.8,00.0,34.5,27.5,07.2,0000.0,0018.46,0004.05,0002.19
2021-12-16 19:23:00,,0819.6,5.00,0.00,25.6,24.9,00.0,34.5,27.4,07.2,0000.0,0018.09,0004.03,0002.19
2021-12-16 19:24:00,,0819.7,5.00,0.00,25.6,24.9,00.0,34.5,27.5,07.2,0000.0,0018.02,0003.99,0002.17
2021-12-16 19:25:00,,0819.6,5.00,0.00,25.6,24.9,00.0,34.5,27.5,07.2,0000.0,0018.49,0004.04,0002.16
2021-12-16 19:26:00,,0819.5,4.99,0.00,25.6,24.9,00.0,34.5,27.5,07.2,0000.0,0017.31,0004.03,0002.16
2021-12-16 19:27:00,,0819.4,5.01,0.00,25.6,24.9,00.0,34.6,27.5,07.2,0000.0,0016.99,0004.04,0002.18
2021-12-16 19:28:00,,0819.4,5.01,0.00,25.7,25.0,00.0,34.6,27.5,07.2,0000.0,0017.64,0004.05,0002.18
2021-12-16 19:29:00,,0819.3,4.99,0.00,25.7,25.0,00.0,34.6,27.6,07.2,0000.0,0019.25,0004.09,0002.18
2021-12-16 19:30:00,,0819.4,5.01,0.00,25.7,25.0,00.0,34.6,27.6,07.2,0000.0,0021.32,0004.18,0002.19
2021-12-16 19:31:00,,0819.4,5.00,0.00,25.7,25.0,00.0,34.6,27.6,07.2,0000.0,0022.01,0004.22,0002.20
2021-12-16 19:32:00,,0819.5,5.01,0.00,25.7,25.0,00.0,34.6,27.6,07.2,0000.0,0021.75,0004.17,0002.22
2021-12-16 19:33:00,,0819.5,5.00,0.00,25.7,25.0,00.0,34.7,27.7,07.2,0000.0,0021.93,0004.18,0002.23
2021-12-16 19:34:00,,0819.4,4.99,0.00,25.8,25.0,00.0,34.7,27.7,07.2,0000.0,0021.48,0004.21,0002.24
2021-12-16 19:35:00,,0819.4,5.02,0.00,25.8,25.0,00.0,34.7,27.7,07.1,0000.0,0022.42,0004.24,0002.26
2021-12-16 19:36:00,,0819.4,4.99,0.00,25.8,25.0,00.0,34.7,27.7,07.1,0000.0,0022.83,0004.24,0002.28
2021-12-16 19:37:00,,0819.4,5.00,0.00,25.8,25.0,00.0,34.7,27.7,07.1,0000.0,0023.28,0004.25,0002.29
2021-12-16 19:38:00,,0819.4,5.01,0.00,25.8,25.1,00.0,34.7,27.7,07.1,0000.0,0023.59,0004.25,0002.29
2021-12-16 19:39:00,,0819.2,5.01,0.00,25.8,25.1,00.0,34.7,27.7,07.1,0000.0,0023.88,0004.20,0002.29
2021-12-16 19:40:00,,0819.2,5.01,0.00,25.8,25.1,00.0,34.7,27.7,07.1,0000.0,0022.10,0004.21,0002.30
2021-12-16 19:41:00,,0819.2,5.00,0.00,25.8,25.1,00.0,34.8,27.7,07.0,0000.0,0020.27,0004.15,0002.29
2021-12-16 19:42:00,,0819.2,5.00,0.00,25.8,25.1,00.0,34.8,27.7,07.0,0000.0,0018.52,0004.08,0002.27
2021-12-16 19:43:00,,0819.2,5.00,0.00,25.9,25.2,00.0,34.8,27.7,07.0,0000.0,0018.61,0004.08,0002.25
2021-12-16 19:44:00,,0819.2,5.00,0.00,25.9,25.2,00.0,34.8,27.7,07.0,0000.0,0018.15,0004.06,0002.23
2021-12-16 19:45:00,,0819.2,4.99,0.00,25.9,25.2,00.0,34.8,27.8,07.0,0000.0,0019.27,0004.02,0002.22
2021-12-16 19:46:00,,0819.2,5.01,0.00,25.9,25.2,00.0,34.8,27.8,07.1,0000.0,0017.80,0004.01,0002.20
2021-12-16 19:47:00,,0819.2,5.00,0.00,25.9,25.2,00.0,34.8,27.8,07.1,0000.0,0016.33,0004.01,0002.21
2021-12-16 19:48:00,,0819.2,5.00,0.00,26.0,25.2,00.0,34.9,27.8,07.1,0000.0,0015.80,0004.08,0002.22
2021-12-16 19:49:00,,0819.2,5.00,0.00,26.0,25.2,00.0,34.9,27.8,07.1,0000.0,0017.66,0004.08,0002.23
2021-12-16 19:50:00,,0819.1,5.01,0.00,26.0,25.3,00.0,34.9,27.8,07.0,0000.0,0017.67,0004.14,0002.24
2021-12-16 19:51:00,,0819.1,5.00,0.00,26.0,25.2,00.0,34.9,27.9,07.0,0000.0,0018.24,0004.16,0002.25
2021-12-16 19:52:00,,0819.1,4.99,0.00,26.0,25.2,00.0,34.9,27.9,07.0,0000.0,0018.85,0004.20,0002.27
2021-12-16 19:53:00,,0819.1,5.01,0.00,26.0,25.2,00.0,34.9,27.9,07.0,0000.0,0019.93,0004.29,0002.29
2021-12-16 19:54:00,,0819.0,5.00,0.00,26.0,25.2,00.0,34.9,27.9,07.0,0000.0,0019.31,0004.30,0002.31
2021-12-16 19:55:00,,0819.0,5.01,0.00,26.0,25.2,00.0,34.9,27.9,07.0,0000.0,0020.01,0004.27,0002.33
2021-12-16 19:56:00,,0818.9,5.00,0.00,26.1,25.2,00.0,35.0,27.9,06.9,0000.0,0018.94,0004.31,0002.35
2021-12-16 19:57:00,,0818.9,5.02,0.00,26.1,25.3,00.0,35.0,27.9,06.9,0000.0,0019.09,0004.33,0002.36
2021-12-16 19:58:00,,0819.0,5.00,0.00,26.1,25.3,00.0,35.0,27.9,06.9,0000.0,0020.19,0004.31,0002.36
2021-12-16 19:59:00,,0818.9,5.02,0.00,26.1,25.3,00.0,35.0,27.9,06.9,0000.0,0019.05,0004.23,0002.36
